Wolf Creek Pass, CO

4:24 PM MDT on March 22, 2017 (GMT -0600)
Wolf Creek Pass

Weather History for KCPW - July, 2013

Change the Weather History Date:

Wednesday, July 17, 2013

  Actual Average (KE33) Record (KE33)
Temperature  
Mean Temperature 46 °F -  
Max Temperature 55 °F 73 °F 89 °F (2003)
Min Temperature 37 °F 54 °F 48 °F (2002)
Degree Days  
Heating Degree Days 19    
Moisture  
Dew Point 41 °F    
Average Humidity 81    
Maximum Humidity 100    
Minimum Humidity 58    
Precipitation  
Precipitation 0.00 in - - ()
Sea Level Pressure  
Sea Level Pressure 30.70 in    
Wind  
Wind Speed - (North)    
Max Wind Speed -    
Max Gust Speed -    
Visibility 9 miles    
Events Fog , Thunderstorm    
Averages and records for this station are not official NWS values.
T = Trace of Precipitation, MM = Missing Value Source: NWS Daily Summary

Daily Weather History Graph

Daily Weather History Graph

Search for Another Location

Airport or City:

Trip Planner

Search our weather history database for the weather conditions in past years. The results will help you decide how hot, cold, wet, or windy it might be!

Date:

Astronomy

Jul. 17, 2013 Rise Set
Actual Time 5:59 AM MDT 8:26 PM MDT
Civil Twilight 5:29 AM MDT 8:56 PM MDT
Nautical Twilight 4:52 AM MDT 9:33 PM MDT
Astronomical Twilight 4:11 AM MDT 10:14 PM MDT
Moon 3:20 PM MDT (7/17) 1:06 AM MDT (7/17)
Length of Visible Light 15h 26m
Length of Day
14h 26m
Waxing Gibbous, 68% of the Moon is Illuminated
Jul 17
Waxing Gibbous
Jul 22
Full
Jul 29
Last Quarter
Aug 6
New
Aug 14
First Quarter

Hourly Weather History & Observations

Time (MDT) Temp. Dew Point Humidity Pressure Visibility Wind Dir Wind Speed Gust Speed Precip Events Conditions
12:18 AM 41.0 °F 37.4 °F 87% 30.69 in 10.0 mi North - - N/A   Clear
12:38 AM 41.0 °F 37.4 °F 87% 30.70 in 10.0 mi North - - N/A   Mostly Cloudy
12:58 AM 41.0 °F 39.2 °F 93% 30.69 in 10.0 mi North - - N/A   Overcast
1:18 AM 41.0 °F 41.0 °F 100% 30.69 in 10.0 mi North - - N/A   Overcast
1:38 AM 41.0 °F 41.0 °F 100% 30.69 in 10.0 mi North - - N/A   Overcast
1:58 AM 41.0 °F 41.0 °F 100% 30.69 in 10.0 mi North - - N/A   Overcast
2:18 AM 41.0 °F 39.2 °F 93% 30.68 in 10.0 mi North - - N/A   Mostly Cloudy
2:38 AM 41.0 °F 39.2 °F 93% 30.68 in 10.0 mi North - - N/A   Mostly Cloudy
2:58 AM 41.0 °F 41.0 °F 100% 30.68 in 10.0 mi North - - N/A   Overcast
3:18 AM 41.0 °F 41.0 °F 100% 30.68 in 4.0 mi North - - N/A   Overcast
3:38 AM 41.0 °F 39.2 °F 93% 30.68 in 10.0 mi North - - N/A   Overcast
3:58 AM 39.2 °F 39.2 °F 100% 30.68 in 10.0 mi North - - N/A   Overcast
4:18 AM 39.2 °F 37.4 °F 93% 30.68 in 10.0 mi North - - N/A   Overcast
4:38 AM 37.4 °F 37.4 °F 100% 30.68 in 7.0 mi North - - N/A   Scattered Clouds
4:58 AM 39.2 °F 39.2 °F 100% 30.68 in 1.2 mi North - - N/A   Overcast
5:18 AM 39.2 °F 39.2 °F 100% 30.68 in 2.0 mi North - - N/A   Overcast
5:38 AM 39.2 °F 39.2 °F 100% 30.68 in 1.0 mi North - - N/A   Overcast
5:58 AM 39.2 °F 39.2 °F 100% 30.69 in 1.8 mi North - - N/A   Overcast
6:18 AM 39.2 °F 39.2 °F 100% 30.69 in 0.2 mi North - - N/A Fog Fog
6:38 AM 39.2 °F 39.2 °F 100% 30.69 in 0.2 mi North - - N/A Fog Fog
6:58 AM 41.0 °F 41.0 °F 100% 30.69 in 0.5 mi North - - N/A Fog Fog
7:18 AM 41.0 °F 41.0 °F 100% 30.70 in 1.2 mi North - - N/A   Overcast
7:38 AM 42.8 °F 41.0 °F 93% 30.70 in 1.2 mi North - - N/A   Overcast
7:58 AM 41.0 °F 41.0 °F 100% 30.71 in 2.5 mi North - - N/A   Mostly Cloudy
8:18 AM 44.6 °F 41.0 °F 87% 30.71 in 10.0 mi North - - N/A   Scattered Clouds
8:38 AM 42.8 °F 41.0 °F 93% 30.72 in 10.0 mi North - - N/A   Mostly Cloudy
8:58 AM 42.8 °F 41.0 °F 93% 30.72 in 10.0 mi North - - N/A   Overcast
9:18 AM 42.8 °F 41.0 °F 93% 30.72 in 10.0 mi North - - N/A   Overcast
9:38 AM 44.6 °F 41.0 °F 87% 30.72 in 10.0 mi North - - N/A   Overcast
9:58 AM 46.4 °F 41.0 °F 81% 30.72 in 10.0 mi North - - N/A   Overcast
10:18 AM 48.2 °F 41.0 °F 76% 30.72 in 10.0 mi North - - N/A   Overcast
10:38 AM 46.4 °F 42.8 °F 87% 30.73 in 10.0 mi North - - N/A   Overcast
10:58 AM 46.4 °F 42.8 °F 87% 30.73 in 10.0 mi North - - N/A   Overcast
11:18 AM 46.4 °F 42.8 °F 87% 30.73 in 10.0 mi North - - N/A   Overcast
11:38 AM 50.0 °F 42.8 °F 76% 30.73 in 10.0 mi North - - N/A   Overcast
11:58 AM 51.8 °F 42.8 °F 71% 30.73 in 10.0 mi North - - N/A   Overcast
12:18 PM 53.6 °F 42.8 °F 67% 30.73 in 10.0 mi North - - N/A   Overcast
12:38 PM 55.4 °F 41.0 °F 58% 30.73 in 10.0 mi North - - N/A   Mostly Cloudy
12:58 PM 53.6 °F 42.8 °F 67% 30.72 in 10.0 mi North - - N/A   Mostly Cloudy
1:18 PM 50.0 °F 42.8 °F 76% 30.72 in 10.0 mi North - - N/A   Overcast
1:38 PM 51.8 °F 42.8 °F 71% 30.72 in 10.0 mi North - - N/A   Overcast
1:58 PM 51.8 °F 42.8 °F 71% 30.72 in 10.0 mi North - - N/A   Overcast
2:18 PM 55.4 °F 44.6 °F 67% 30.71 in 10.0 mi North - - N/A   Mostly Cloudy
2:38 PM 55.4 °F 42.8 °F 63% 30.71 in 10.0 mi North - - N/A   Mostly Cloudy
2:58 PM 55.4 °F 41.0 °F 58% 30.71 in 10.0 mi North - - N/A   Mostly Cloudy
3:18 PM 53.6 °F 42.8 °F 67% 30.71 in 10.0 mi North - - N/A   Overcast
3:38 PM 53.6 °F 42.8 °F 67% 30.70 in 10.0 mi North - - N/A   Mostly Cloudy
3:58 PM 55.4 °F 44.6 °F 67% 30.70 in 7.0 mi North - - N/A   Scattered Clouds
4:18 PM 55.4 °F 42.8 °F 63% 30.69 in 10.0 mi North - - N/A   Mostly Cloudy
4:38 PM 53.6 °F 42.8 °F 67% 30.70 in 10.0 mi North - - N/A   Mostly Cloudy
4:58 PM 53.6 °F 42.8 °F 67% 30.69 in 10.0 mi North - - N/A   Scattered Clouds
5:18 PM 55.4 °F 42.8 °F 63% 30.69 in 10.0 mi North - - N/A   Scattered Clouds
5:38 PM 53.6 °F 42.8 °F 67% 30.69 in 10.0 mi North - - N/A Thunderstorm Mostly Cloudy
5:58 PM 51.8 °F 42.8 °F 71% 30.69 in 10.0 mi North - - N/A Thunderstorm Overcast
6:18 PM 53.6 °F 42.8 °F 67% 30.69 in 10.0 mi North - - N/A   Mostly Cloudy
6:38 PM 53.6 °F 42.8 °F 67% 30.69 in 10.0 mi North - - N/A Thunderstorm Scattered Clouds
6:58 PM 53.6 °F 42.8 °F 67% 30.69 in 10.0 mi North - - N/A   Scattered Clouds
7:18 PM 53.6 °F 41.0 °F 62% 30.69 in 10.0 mi North - - N/A   Scattered Clouds
7:38 PM 51.8 °F 41.0 °F 67% 30.70 in 10.0 mi North - - N/A   Clear
7:58 PM 50.0 °F 41.0 °F 71% 30.70 in 10.0 mi North - - N/A   Clear
8:18 PM 50.0 °F 41.0 °F 71% 30.71 in 10.0 mi North - - N/A   Clear
8:38 PM 50.0 °F 39.2 °F 66% 30.71 in 10.0 mi North - - N/A   Clear
8:58 PM 48.2 °F 39.2 °F 71% 30.72 in 10.0 mi North - - N/A   Clear
9:18 PM 48.2 °F 39.2 °F 71% 30.72 in 10.0 mi North - - N/A   Clear
9:38 PM 48.2 °F 39.2 °F 71% 30.72 in 10.0 mi North - - N/A   Clear
9:58 PM 48.2 °F 41.0 °F 76% 30.72 in 10.0 mi North - - N/A   Clear
10:18 PM 46.4 °F 39.2 °F 76% 30.72 in 10.0 mi North - - N/A   Clear
10:38 PM 46.4 °F 37.4 °F 71% 30.72 in 10.0 mi North - - N/A   Clear
10:58 PM 44.6 °F 37.4 °F 76% 30.72 in 10.0 mi North - - N/A Thunderstorm Clear
11:18 PM 44.6 °F 39.2 °F 81% 30.73 in 10.0 mi North - - N/A   Scattered Clouds
11:38 PM 44.6 °F 39.2 °F 81% 30.73 in 10.0 mi North - - N/A Thunderstorm Clear
11:58 PM 42.8 °F 39.2 °F 87% 30.73 in 10.0 mi North - - N/A   Clear